DW4253 Weather Reports


time (UTC)temp
C
wind
direction
speed
KPH
gust
KPH
rain 1hr
cm
rain 24hr
cm
rain mn
cm
humidity
%
barometer
mb
20260506010803 9 15 3.2 4.8 0.00 0.03 0.00 88 1009.3
20260506010304 9 5 3.2 12.9 0.00 0.03 0.00 88 1009.3
20260506000304 10 21 4.8 16.1 0.00 0.05 0.00 86 1009.8
20260505230805 10 66 3.2 19.3 0.00 0.23 0.00 86 1009.9
20260505200303 11 89 3.2 16.1 0.00 0.86 0.38 86 1010.5
20260505190303 11 64 1.6 11.3 0.00 1.07 0.38 88 1010.0
20260505180304 12 75 4.8 16.1 0.00 1.07 0.38 86 1009.9
20260505160804 12 79 4.8 12.9 0.00 1.07 0.38 89 1010.3
20260505160304 12 80 3.2 14.5 0.00 1.07 0.38 89 1010.4
20260505150804 12 50 3.2 8.0 0.00 1.07 0.38 90 1010.7
20260505150303 11 89 4.8 14.5 0.00 1.07 0.38 89 1010.7
20260505110303 10 87 3.2 14.5 0.00 1.19 0.38 97 1011.9
20260505100304 10 81 3.2 19.3 0.00 1.19 0.38 97 1012.0
20260505090804 9 73 4.8 12.9 0.03 1.19 0.38 97 1012.1
20260505080804 9 68 4.8 12.9 0.00 1.17 0.36 97 1012.1
20260505070803 9 67 3.2 9.7 0.00 1.17 0.36 97 1012.0
20260505050804 10 61 1.6 8.0 0.00 1.17 0.36 97 1012.0
20260505050304 10 82 3.2 12.9 0.00 1.17 0.36 97 1012.1
20260505040804 10 5 1.6 4.8 0.00 1.17 0.36 97 1011.9
20260505030804 11 45 3.2 8.0 0.00 1.17 0.36 97 1012.1